TimeCDT,TemperatureF,Dew PointF,Humidity,Sea Level PressureIn,VisibilityMPH,Wind Direction,Wind SpeedMPH,Gust SpeedMPH,PrecipitationIn,Events,Conditions,WindDirDegrees,DateUTC
12:15 AM,65.7,61.7,87,30.04,10.0,South,4.6,-,N/A,,Clear,170,2013-07-07 05:15:00
12:35 AM,64.2,62.1,93,30.04,10.0,South,4.6,-,N/A,,Clear,180,2013-07-07 05:35:00
12:55 AM,64.6,62.1,92,30.05,10.0,SSE,6.9,-,N/A,,Clear,160,2013-07-07 05:55:00
1:15 AM,64.9,62.1,90,30.04,10.0,SSE,5.8,-,N/A,,Clear,160,2013-07-07 06:15:00
1:35 AM,64.4,61.9,92,30.03,10.0,South,5.8,-,N/A,,Clear,170,2013-07-07 06:35:00
1:55 AM,63.9,62.1,94,30.03,10.0,South,5.8,-,N/A,,Clear,170,2013-07-07 06:55:00
2:15 AM,64.0,62.6,95,30.03,10.0,South,5.8,-,N/A,,Clear,180,2013-07-07 07:15:00
2:35 AM,64.0,62.6,95,30.03,10.0,South,3.5,-,N/A,,Clear,170,2013-07-07 07:35:00
2:55 AM,63.7,62.4,96,30.03,10.0,SE,4.6,-,N/A,,Clear,140,2013-07-07 07:55:00
3:15 AM,63.7,62.2,95,30.03,10.0,SSE,5.8,-,N/A,,Clear,160,2013-07-07 08:15:00
3:35 AM,62.8,61.9,97,30.02,10.0,South,3.5,-,N/A,,Clear,190,2013-07-07 08:35:00
3:55 AM,62.4,61.7,97,30.02,7.0,South,4.6,-,N/A,,Clear,180,2013-07-07 08:55:00
4:15 AM,63.0,62.1,97,30.03,10.0,SSE,4.6,-,N/A,,Clear,160,2013-07-07 09:15:00
4:35 AM,62.8,61.7,96,30.03,10.0,SSE,5.8,-,N/A,,Clear,160,2013-07-07 09:35:00
4:55 AM,62.8,61.9,97,30.03,10.0,South,5.8,-,N/A,,Clear,190,2013-07-07 09:55:00
5:15 AM,62.6,61.7,97,30.03,7.0,SSE,3.5,-,N/A,,Clear,160,2013-07-07 10:15:00
5:35 AM,62.6,61.9,97,30.03,7.0,South,4.6,-,N/A,,Clear,170,2013-07-07 10:35:00
5:55 AM,63.0,62.1,97,30.04,7.0,SSE,4.6,-,N/A,,Clear,160,2013-07-07 10:55:00
6:15 AM,63.5,62.6,97,30.04,7.0,South,5.8,-,N/A,,Clear,180,2013-07-07 11:15:00
6:35 AM,64.0,63.0,96,30.05,7.0,South,6.9,-,N/A,,Clear,180,2013-07-07 11:35:00
6:55 AM,64.4,63.5,97,30.05,7.0,South,5.8,-,N/A,,Clear,190,2013-07-07 11:55:00
7:15 AM,64.9,63.5,95,30.05,10.0,South,6.9,-,N/A,,Clear,170,2013-07-07 12:15:00
7:35 AM,66.0,64.4,94,30.06,10.0,South,6.9,-,N/A,,Clear,170,2013-07-07 12:35:00
7:55 AM,67.6,64.6,90,30.06,10.0,South,8.1,-,N/A,,Clear,170,2013-07-07 12:55:00
8:15 AM,68.7,64.6,87,30.07,10.0,SSE,6.9,-,N/A,,Clear,160,2013-07-07 13:15:00
8:35 AM,68.7,64.9,88,30.07,10.0,South,6.9,-,N/A,,Clear,170,2013-07-07 13:35:00
8:55 AM,69.8,65.3,86,30.07,10.0,South,8.1,-,N/A,,Clear,170,2013-07-07 13:55:00
9:15 AM,72.3,66.6,82,30.07,10.0,SSE,9.2,-,N/A,,Clear,160,2013-07-07 14:15:00
9:35 AM,73.2,66.7,80,30.06,10.0,South,9.2,-,N/A,,Clear,180,2013-07-07 14:35:00
9:55 AM,75.2,67.8,78,30.06,10.0,South,9.2,-,N/A,,Clear,190,2013-07-07 14:55:00
10:15 AM,76.1,68.7,78,30.06,10.0,South,8.1,-,N/A,,Clear,180,2013-07-07 15:15:00
10:35 AM,77.2,69.1,76,30.06,10.0,South,8.1,-,N/A,,Clear,180,2013-07-07 15:35:00
10:55 AM,78.1,69.8,76,30.06,10.0,South,8.1,-,N/A,,Clear,180,2013-07-07 15:55:00
11:15 AM,79.0,70.0,74,30.06,10.0,South,9.2,-,N/A,,Clear,180,2013-07-07 16:15:00
11:35 AM,80.2,70.9,73,30.06,10.0,South,6.9,-,N/A,,Clear,190,2013-07-07 16:35:00
11:55 AM,80.8,71.6,73,30.06,10.0,South,6.9,-,N/A,,Clear,180,2013-07-07 16:55:00
12:15 PM,81.5,71.4,71,30.05,10.0,South,9.2,-,N/A,,Clear,170,2013-07-07 17:15:00
12:35 PM,82.2,71.1,69,30.05,10.0,South,6.9,-,N/A,,Clear,180,2013-07-07 17:35:00
12:55 PM,82.4,72.0,71,30.05,10.0,SSE,8.1,-,N/A,,Scattered Clouds,160,2013-07-07 17:55:00
1:15 PM,82.4,72.3,71,30.05,10.0,South,6.9,-,N/A,,Mostly Cloudy,180,2013-07-07 18:15:00
1:35 PM,83.5,72.9,70,30.05,10.0,South,6.9,-,N/A,,Scattered Clouds,170,2013-07-07 18:35:00
1:55 PM,83.8,72.7,69,30.05,10.0,South,10.4,-,N/A,,Clear,190,2013-07-07 18:55:00
2:15 PM,84.2,72.0,67,30.04,10.0,South,8.1,-,N/A,,Clear,170,2013-07-07 19:15:00
2:35 PM,85.1,72.7,66,30.03,10.0,South,10.4,-,N/A,,Clear,180,2013-07-07 19:35:00
2:55 PM,85.1,72.3,65,30.03,10.0,South,10.4,-,N/A,,Clear,180,2013-07-07 19:55:00
3:15 PM,85.3,71.8,64,30.03,10.0,South,8.1,-,N/A,,Clear,190,2013-07-07 20:15:00
3:35 PM,85.5,71.4,63,30.03,10.0,South,11.5,-,N/A,,Clear,180,2013-07-07 20:35:00
3:55 PM,85.8,72.3,64,30.02,10.0,South,8.1,-,N/A,,Clear,190,2013-07-07 20:55:00
4:15 PM,85.1,70.9,62,30.02,10.0,South,9.2,-,N/A,,Scattered Clouds,170,2013-07-07 21:15:00
4:35 PM,85.3,72.0,64,30.02,10.0,South,10.4,-,N/A,,Clear,180,2013-07-07 21:35:00
4:55 PM,84.9,71.6,64,30.01,10.0,South,11.5,-,N/A,,Clear,180,2013-07-07 21:55:00
5:15 PM,85.1,71.8,64,30.01,10.0,South,8.1,-,N/A,,Clear,180,2013-07-07 22:15:00
5:35 PM,85.1,71.1,63,30.01,10.0,South,11.5,-,N/A,,Clear,180,2013-07-07 22:35:00
5:55 PM,84.7,71.1,63,30.01,10.0,South,10.4,-,N/A,,Clear,180,2013-07-07 22:55:00
6:15 PM,84.6,70.5,63,30.01,10.0,South,9.2,16.1,N/A,,Clear,180,2013-07-07 23:15:00
6:35 PM,84.2,70.7,64,30.01,10.0,South,10.4,-,N/A,,Clear,180,2013-07-07 23:35:00
6:55 PM,83.3,71.4,67,30.01,10.0,South,8.1,-,N/A,,Clear,190,2013-07-07 23:55:00
7:15 PM,82.6,71.6,69,30.01,10.0,South,8.1,-,N/A,,Clear,180,2013-07-08 00:15:00
7:35 PM,81.5,71.2,71,30.01,10.0,South,6.9,-,N/A,,Clear,180,2013-07-08 00:35:00
7:55 PM,80.1,70.2,72,30.01,10.0,South,6.9,-,N/A,,Clear,180,2013-07-08 00:55:00
8:15 PM,78.3,70.7,77,30.02,10.0,South,5.8,-,N/A,,Clear,170,2013-07-08 01:15:00
8:35 PM,77.4,70.7,80,30.02,10.0,SSE,5.8,-,N/A,,Clear,160,2013-07-08 01:35:00
8:55 PM,76.6,70.9,82,30.03,10.0,South,6.9,-,N/A,,Clear,170,2013-07-08 01:55:00
9:15 PM,76.1,70.9,84,30.03,10.0,South,6.9,-,N/A,,Clear,170,2013-07-08 02:15:00
9:35 PM,76.1,70.3,82,30.04,10.0,South,6.9,-,N/A,,Clear,170,2013-07-08 02:35:00
9:55 PM,76.3,70.3,82,30.04,10.0,South,6.9,-,N/A,,Clear,170,2013-07-08 02:55:00
10:15 PM,76.1,70.3,82,30.04,10.0,South,8.1,-,N/A,,Clear,170,2013-07-08 03:15:00
10:35 PM,75.4,70.3,84,30.05,10.0,South,6.9,-,N/A,,Clear,170,2013-07-08 03:35:00
10:55 PM,75.0,70.3,85,30.05,10.0,South,6.9,-,N/A,,Clear,180,2013-07-08 03:55:00
11:15 PM,75.0,70.3,85,30.06,10.0,South,8.1,-,N/A,,Clear,170,2013-07-08 04:15:00
11:35 PM,74.3,70.3,87,30.06,10.0,South,6.9,-,N/A,,Clear,180,2013-07-08 04:35:00
11:55 PM,73.4,70.2,90,30.06,10.0,South,5.8,-,N/A,,Clear,180,2013-07-08 04:55:00